AAL3219 KBOS-KDCA

Flight info

Callsign AAL3219
Flight time 1h 11m
Altitude 32000
Route SSOXS7 SSOXS Q167 ZIZZI KNUKK ATR LAFLN DEALE3
Aircraft A319/M-SDE3FGHIRWY/LB1

Departure

Time 2026-05-06 01:12
Airport Boston Logan International Airport (KBOS)

Arrival

Time 2026-05-06 02:23
Airport Ronald Reagan Washington National Airport (KDCA)
Time Latitude Longitude Altitude Speed Heading
2026-05-06 00:41 42.35984 -71.01748 26 ft 0 kts 353°
2026-05-06 00:57 42.35979 -71.01747 30 ft 4 kts 353°
2026-05-06 00:57 42.35952 -71.01743 27 ft 4 kts 353°
2026-05-06 00:57 42.35931 -71.01741 29 ft 4 kts 15°
2026-05-06 00:57 42.35914 -71.01757 28 ft 4 kts 81°
2026-05-06 00:58 42.35916 -71.01790 27 ft 4 kts 103°
2026-05-06 00:58 42.35922 -71.01818 31 ft 3 kts 110°
2026-05-06 00:58 42.35927 -71.01837 31 ft 0 kts 110°
2026-05-06 00:59 42.35927 -71.01836 31 ft 0 kts 110°
2026-05-06 01:01 42.35920 -71.01807 14 ft 8 kts 108°
2026-05-06 01:01 42.35905 -71.01716 25 ft 12 kts 101°
2026-05-06 01:01 42.35890 -71.01592 25 ft 15 kts 88°
2026-05-06 01:02 42.35973 -71.01509 27 ft 18 kts 18°
2026-05-06 01:02 42.36098 -71.01449 26 ft 21 kts 19°
2026-05-06 01:02 42.36243 -71.01379 25 ft 24 kts 19°
2026-05-06 01:02 42.36404 -71.01300 26 ft 25 kts 20°
2026-05-06 01:03 42.36541 -71.01233 28 ft 20 kts 19°
2026-05-06 01:03 42.36631 -71.01190 27 ft 10 kts 19°
2026-05-06 01:03 42.36699 -71.01158 28 ft 12 kts 19°
2026-05-06 01:03 42.36779 -71.01148 26 ft 13 kts 339°
2026-05-06 01:04 42.36845 -71.01223 26 ft 13 kts 313°
2026-05-06 01:04 42.36822 -71.01303 27 ft 13 kts 176°
2026-05-06 01:04 42.36748 -71.01244 29 ft 11 kts 166°
2026-05-06 01:04 42.36683 -71.01257 27 ft 10 kts 194°
2026-05-06 01:05 42.36655 -71.01227 26 ft 2 kts 64°
2026-05-06 01:05 42.36662 -71.01215 26 ft 0 kts 54°
2026-05-06 01:05 42.36672 -71.01196 26 ft 7 kts 53°
2026-05-06 01:05 42.36727 -71.01148 27 ft 12 kts 15°
2026-05-06 01:06 42.36814 -71.01183 26 ft 15 kts 317°
2026-05-06 01:06 42.36908 -71.01199 27 ft 17 kts 39°
2026-05-06 01:06 42.37015 -71.01093 28 ft 21 kts 27°
2026-05-06 01:06 42.37154 -71.01002 28 ft 24 kts 25°
2026-05-06 01:07 42.37304 -71.00908 28 ft 23 kts 22°
2026-05-06 01:07 42.37445 -71.00837 28 ft 23 kts 19°
2026-05-06 01:07 42.37599 -71.00763 27 ft 23 kts 20°
2026-05-06 01:07 42.37695 -71.00716 27 ft 9 kts 19°
2026-05-06 01:08 42.37757 -71.00687 26 ft 11 kts 19°
2026-05-06 01:08 42.37826 -71.00650 27 ft 7 kts 34°
2026-05-06 01:08 42.37841 -71.00608 27 ft 4 kts 86°
2026-05-06 01:08 42.37830 -71.00560 27 ft 7 kts 109°
2026-05-06 01:09 42.37808 -71.00489 28 ft 10 kts 128°
2026-05-06 01:09 42.37746 -71.00496 26 ft 9 kts 200°
2026-05-06 01:09 42.37741 -71.00498 26 ft 0 kts 200°
2026-05-06 01:11 42.37735 -71.00501 30 ft 4 kts 200°
2026-05-06 01:11 42.37492 -71.00619 27 ft 77 kts 200°
2026-05-06 01:11 42.36780 -71.00970 115 ft 131 kts 201°
2026-05-06 01:12 42.35920 -71.01439 764 ft 134 kts 200°
2026-05-06 01:12 42.35049 -71.01874 1555 ft 134 kts 202°
2026-05-06 01:12 42.34046 -71.01696 2194 ft 172 kts 167°
2026-05-06 01:12 42.33038 -71.00440 2605 ft 217 kts 143°
2026-05-06 01:13 42.32061 -70.98773 3299 ft 235 kts 133°
2026-05-06 01:13 42.31423 -70.96641 4096 ft 256 kts 107°
2026-05-06 01:13 42.31344 -70.94127 4683 ft 285 kts 84°
2026-05-06 01:13 42.31746 -70.91427 5271 ft 306 kts 79°
2026-05-06 01:14 42.32600 -70.85680 7179 ft 316 kts 81°
2026-05-06 01:14 42.32954 -70.82739 8169 ft 318 kts 88°
2026-05-06 01:14 42.32854 -70.79778 9158 ft 316 kts 103°
2026-05-06 01:15 42.32260 -70.76934 10138 ft 313 kts 117°
2026-05-06 01:15 42.31335 -70.74194 10627 ft 333 kts 120°
2026-05-06 01:15 42.30131 -70.71436 11071 ft 346 kts 132°
2026-05-06 01:15 42.28507 -70.69106 11809 ft 346 kts 145°
2026-05-06 01:16 42.26534 -70.67283 12637 ft 344 kts 157°
2026-05-06 01:16 42.24331 -70.66065 13486 ft 343 kts 166°
2026-05-06 01:16 42.22057 -70.65022 14252 ft 346 kts 166°
2026-05-06 01:16 42.19760 -70.63976 14974 ft 350 kts 166°
2026-05-06 01:17 42.17440 -70.62931 15731 ft 353 kts 168°
2026-05-06 01:17 42.15039 -70.62270 16409 ft 352 kts 179°
2026-05-06 01:17 42.12598 -70.62283 17109 ft 351 kts 191°
2026-05-06 01:17 42.10212 -70.62962 17816 ft 350 kts 201°
2026-05-06 01:18 42.07890 -70.63998 18482 ft 354 kts 202°
2026-05-06 01:18 42.05572 -70.65025 19082 ft 358 kts 202°
2026-05-06 01:18 42.03190 -70.66075 19691 ft 362 kts 202°
2026-05-06 01:18 42.00778 -70.67137 20299 ft 366 kts 202°
2026-05-06 01:19 41.98343 -70.68204 20955 ft 370 kts 202°
2026-05-06 01:19 41.95883 -70.69280 21534 ft 374 kts 202°
2026-05-06 01:19 41.93398 -70.70367 22130 ft 378 kts 202°
2026-05-06 01:19 41.90880 -70.71470 22720 ft 382 kts 202°
2026-05-06 01:20 41.88339 -70.72583 23302 ft 386 kts 202°
2026-05-06 01:20 41.85809 -70.73690 23802 ft 390 kts 202°
2026-05-06 01:20 41.83274 -70.74977 24253 ft 390 kts 209°
2026-05-06 01:20 41.80887 -70.76709 24702 ft 392 kts 213°
2026-05-06 01:21 41.78497 -70.78512 25129 ft 395 kts 213°
2026-05-06 01:21 41.76088 -70.80327 25546 ft 399 kts 213°
2026-05-06 01:21 41.73655 -70.82157 25967 ft 403 kts 213°
2026-05-06 01:21 41.71202 -70.83997 26390 ft 407 kts 213°
2026-05-06 01:22 41.68719 -70.85849 26805 ft 410 kts 213°
2026-05-06 01:22 41.66253 -70.87693 27209 ft 413 kts 213°
2026-05-06 01:22 41.63736 -70.89582 27621 ft 417 kts 214°
2026-05-06 01:22 41.61194 -70.91486 28013 ft 421 kts 214°
2026-05-06 01:23 41.58630 -70.93405 28414 ft 424 kts 214°
2026-05-06 01:23 41.56169 -70.95563 28813 ft 422 kts 223°
2026-05-06 01:23 41.54007 -70.98200 29202 ft 420 kts 232°
2026-05-06 01:23 41.52195 -71.01235 29582 ft 418 kts 240°
2026-05-06 01:24 41.50585 -71.04479 29956 ft 421 kts 240°
2026-05-06 01:24 41.48960 -71.07741 30277 ft 424 kts 240°
2026-05-06 01:24 41.47339 -71.10975 30579 ft 426 kts 240°
2026-05-06 01:24 41.45682 -71.14266 30888 ft 429 kts 240°
2026-05-06 01:25 41.44012 -71.17575 31173 ft 431 kts 240°
2026-05-06 01:25 41.42332 -71.20904 31459 ft 434 kts 240°
2026-05-06 01:25 41.40643 -71.24255 31747 ft 437 kts 240°
2026-05-06 01:25 41.38950 -71.27616 31934 ft 437 kts 240°
2026-05-06 01:26 41.37280 -71.30921 31967 ft 423 kts 240°
2026-05-06 01:26 41.35654 -71.34138 31971 ft 417 kts 240°
2026-05-06 01:26 41.32456 -71.40482 31976 ft 414 kts 241°
2026-05-06 01:27 41.29240 -71.46839 31983 ft 414 kts 240°
2026-05-06 01:27 41.26030 -71.53182 31990 ft 414 kts 240°
2026-05-06 01:28 41.22808 -71.59518 31995 ft 413 kts 240°
2026-05-06 01:28 41.19610 -71.65791 32000 ft 412 kts 240°
2026-05-06 01:29 41.16402 -71.72080 31995 ft 411 kts 240°
2026-05-06 01:29 41.13191 -71.78361 31981 ft 411 kts 240°
2026-05-06 01:30 41.09993 -71.84656 31975 ft 412 kts 240°
2026-05-06 01:30 41.06810 -71.90912 31977 ft 412 kts 240°
2026-05-06 01:31 41.03639 -71.97209 31993 ft 409 kts 244°
2026-05-06 01:31 41.01194 -72.03940 32001 ft 405 kts 249°
2026-05-06 01:32 40.98803 -72.10751 31989 ft 416 kts 249°
2026-05-06 01:32 40.97564 -72.14270 31993 ft 427 kts 249°
2026-05-06 01:32 40.96299 -72.17851 31993 ft 431 kts 248°
2026-05-06 01:33 40.93754 -72.25007 31989 ft 434 kts 248°
2026-05-06 01:33 40.90765 -72.31914 31991 ft 436 kts 236°
2026-05-06 01:34 40.86546 -72.37739 31991 ft 440 kts 229°
2026-05-06 01:34 40.82197 -72.43416 31969 ft 440 kts 229°
2026-05-06 01:35 40.77671 -72.48806 31958 ft 444 kts 224°
2026-05-06 01:35 40.72902 -72.53970 31956 ft 444 kts 224°
2026-05-06 01:36 40.68124 -72.59145 31965 ft 444 kts 224°
2026-05-06 01:36 40.63458 -72.64448 31977 ft 442 kts 225°
2026-05-06 01:37 40.58896 -72.69778 31984 ft 441 kts 226°
2026-05-06 01:37 40.54266 -72.75146 31989 ft 441 kts 225°
2026-05-06 01:38 40.49676 -72.80391 31985 ft 440 kts 225°
2026-05-06 01:38 40.45050 -72.85657 31966 ft 440 kts 225°
2026-05-06 01:39 40.40425 -72.90932 31969 ft 441 kts 225°
2026-05-06 01:39 40.35800 -72.96210 31973 ft 441 kts 225°
2026-05-06 01:40 40.31203 -73.01426 32002 ft 439 kts 225°
2026-05-06 01:40 40.26580 -73.06666 31985 ft 439 kts 225°
2026-05-06 01:41 40.21963 -73.11899 31980 ft 439 kts 225°
2026-05-06 01:41 40.17341 -73.17127 31992 ft 440 kts 225°
2026-05-06 01:42 40.12707 -73.22340 31991 ft 439 kts 225°
2026-05-06 01:42 40.08107 -73.27512 31981 ft 440 kts 225°
2026-05-06 01:43 40.03462 -73.32719 32005 ft 440 kts 225°
2026-05-06 01:43 39.98826 -73.37922 32011 ft 439 kts 225°
2026-05-06 01:44 39.94199 -73.43088 32016 ft 438 kts 224°
2026-05-06 01:44 39.89595 -73.48212 32009 ft 438 kts 225°
2026-05-06 01:45 39.84958 -73.53370 31997 ft 439 kts 225°
2026-05-06 01:45 39.80321 -73.58540 32006 ft 439 kts 225°
2026-05-06 01:46 39.75676 -73.63713 32012 ft 439 kts 225°
2026-05-06 01:46 39.71062 -73.68833 31993 ft 440 kts 224°
2026-05-06 01:47 39.66409 -73.73987 32002 ft 440 kts 224°
2026-05-06 01:47 39.61753 -73.79132 32008 ft 440 kts 224°
2026-05-06 01:48 39.57089 -73.84286 32013 ft 440 kts 224°
2026-05-06 01:48 39.52468 -73.89392 32015 ft 440 kts 224°
2026-05-06 01:49 39.47803 -73.94518 32008 ft 440 kts 224°
2026-05-06 01:49 39.43136 -73.99633 32017 ft 440 kts 224°
2026-05-06 01:50 39.38469 -74.04747 32016 ft 439 kts 224°
2026-05-06 01:50 39.33834 -74.09802 31995 ft 439 kts 224°
2026-05-06 01:51 39.29708 -74.14306 31990 ft 439 kts 224°
2026-05-06 01:51 39.25042 -74.19393 32002 ft 439 kts 224°
2026-05-06 01:52 39.20372 -74.24473 31996 ft 439 kts 224°
2026-05-06 01:52 39.15695 -74.29542 31981 ft 439 kts 224°
2026-05-06 01:53 39.11018 -74.34611 31993 ft 440 kts 224°
2026-05-06 01:53 39.06356 -74.39650 31991 ft 440 kts 224°
2026-05-06 01:54 39.01660 -74.44709 32007 ft 440 kts 224°
2026-05-06 01:54 38.97073 -74.49892 31994 ft 436 kts 231°
2026-05-06 01:55 38.93769 -74.56239 31994 ft 428 kts 248°
2026-05-06 01:55 38.92017 -74.63494 31994 ft 425 kts 258°
2026-05-06 01:56 38.90576 -74.70851 31988 ft 425 kts 257°
2026-05-06 01:56 38.89131 -74.78214 31986 ft 425 kts 258°
2026-05-06 01:57 38.87732 -74.85602 31978 ft 426 kts 258°
2026-05-06 01:57 38.86366 -74.92934 31982 ft 426 kts 258°
2026-05-06 01:58 38.84974 -75.00322 31992 ft 426 kts 258°
2026-05-06 01:58 38.83565 -75.07686 31973 ft 425 kts 258°
2026-05-06 01:59 38.82146 -75.15049 31967 ft 425 kts 258°
2026-05-06 01:59 38.80901 -75.22392 31963 ft 423 kts 265°
2026-05-06 02:00 38.80440 -75.29888 31669 ft 416 kts 266°
2026-05-06 02:00 38.80216 -75.33566 31003 ft 413 kts 266°
2026-05-06 02:00 38.79991 -75.37219 30349 ft 409 kts 266°
2026-05-06 02:01 38.79765 -75.40846 29640 ft 406 kts 265°
2026-05-06 02:01 38.79541 -75.44427 28933 ft 401 kts 265°
2026-05-06 02:01 38.79319 -75.47930 27716 ft 402 kts 265°
2026-05-06 02:01 38.79087 -75.51567 25884 ft 418 kts 264°
2026-05-06 02:02 38.78847 -75.55315 24086 ft 424 kts 263°
2026-05-06 02:02 38.78603 -75.59106 22272 ft 427 kts 263°
2026-05-06 02:02 38.78357 -75.62897 20931 ft 428 kts 263°
2026-05-06 02:02 38.78110 -75.66681 20033 ft 424 kts 263°
2026-05-06 02:03 38.77864 -75.70427 19121 ft 420 kts 263°
2026-05-06 02:03 38.77620 -75.74148 18225 ft 418 kts 263°
2026-05-06 02:03 38.77374 -75.77854 17277 ft 415 kts 263°
2026-05-06 02:03 38.77134 -75.81469 16448 ft 410 kts 263°
2026-05-06 02:04 38.76895 -75.85090 15635 ft 406 kts 263°
2026-05-06 02:04 38.76659 -75.88673 14857 ft 402 kts 263°
2026-05-06 02:04 38.76423 -75.92214 14111 ft 398 kts 263°
2026-05-06 02:04 38.76187 -75.95733 13340 ft 395 kts 263°
2026-05-06 02:05 38.75949 -75.99228 12593 ft 391 kts 263°
2026-05-06 02:05 38.75711 -76.02679 11877 ft 387 kts 263°
2026-05-06 02:05 38.75515 -76.06099 11144 ft 384 kts 267°
2026-05-06 02:05 38.75717 -76.09483 10665 ft 378 kts 275°
2026-05-06 02:06 38.76046 -76.12824 10421 ft 376 kts 275°
2026-05-06 02:06 38.76356 -76.16101 10209 ft 375 kts 274°
2026-05-06 02:06 38.76663 -76.19398 10035 ft 369 kts 274°
2026-05-06 02:06 38.76958 -76.22550 10032 ft 344 kts 274°
2026-05-06 02:07 38.77236 -76.25491 10036 ft 321 kts 274°
2026-05-06 02:07 38.77494 -76.28254 10033 ft 307 kts 274°
2026-05-06 02:07 38.77739 -76.30955 10036 ft 305 kts 274°
2026-05-06 02:07 38.77983 -76.33653 10039 ft 304 kts 274°
2026-05-06 02:08 38.78228 -76.36344 10031 ft 304 kts 274°
2026-05-06 02:08 38.78475 -76.39029 10027 ft 304 kts 274°
2026-05-06 02:08 38.78718 -76.41676 10026 ft 299 kts 274°
2026-05-06 02:08 38.78954 -76.44248 10027 ft 282 kts 274°
2026-05-06 02:09 38.79176 -76.46672 9999 ft 267 kts 274°
2026-05-06 02:09 38.79388 -76.49008 9749 ft 261 kts 273°
2026-05-06 02:09 38.79596 -76.51323 9489 ft 264 kts 273°
2026-05-06 02:09 38.79802 -76.53668 9236 ft 265 kts 272°
2026-05-06 02:10 38.79933 -76.56014 8961 ft 263 kts 269°
2026-05-06 02:10 38.80012 -76.58345 8715 ft 261 kts 269°
2026-05-06 02:10 38.80073 -76.60659 8461 ft 259 kts 268°
2026-05-06 02:10 38.80131 -76.62962 8209 ft 258 kts 268°
2026-05-06 02:11 38.80194 -76.65223 7962 ft 257 kts 268°
2026-05-06 02:11 38.80262 -76.67506 7714 ft 255 kts 268°
2026-05-06 02:11 38.80334 -76.69777 7468 ft 254 kts 268°
2026-05-06 02:11 38.80406 -76.72031 7224 ft 253 kts 268°
2026-05-06 02:12 38.80479 -76.74282 6977 ft 253 kts 268°
2026-05-06 02:12 38.80599 -76.76533 6739 ft 255 kts 275°
2026-05-06 02:12 38.81143 -76.78716 6496 ft 261 kts 289°
2026-05-06 02:12 38.82166 -76.80668 6250 ft 267 kts 301°
2026-05-06 02:13 38.83324 -76.82521 6061 ft 266 kts 301°
2026-05-06 02:13 38.84475 -76.84372 6013 ft 266 kts 301°
2026-05-06 02:13 38.85601 -76.86174 6015 ft 258 kts 301°
2026-05-06 02:13 38.86703 -76.87931 6022 ft 245 kts 301°
2026-05-06 02:14 38.87748 -76.89580 5931 ft 234 kts 302°
2026-05-06 02:14 38.88885 -76.91076 5686 ft 233 kts 306°
2026-05-06 02:14 38.90023 -76.92529 5437 ft 230 kts 306°
2026-05-06 02:14 38.91149 -76.93971 5190 ft 228 kts 306°
2026-05-06 02:15 38.92262 -76.95402 4942 ft 226 kts 306°
2026-05-06 02:15 38.93375 -76.96830 4695 ft 226 kts 306°
2026-05-06 02:15 38.94485 -76.98254 4444 ft 226 kts 305°
2026-05-06 02:15 38.95600 -76.99684 4191 ft 226 kts 305°
2026-05-06 02:16 38.96698 -77.01089 3937 ft 225 kts 305°
2026-05-06 02:16 38.97799 -77.02498 3706 ft 224 kts 305°
2026-05-06 02:16 38.98895 -77.03901 3457 ft 223 kts 305°
2026-05-06 02:16 38.99993 -77.05306 3211 ft 223 kts 305°
2026-05-06 02:17 39.01090 -77.06711 3046 ft 222 kts 305°
2026-05-06 02:17 39.02021 -77.08230 3001 ft 209 kts 283°
2026-05-06 02:17 39.02145 -77.09934 3010 ft 182 kts 248°
2026-05-06 02:17 39.01560 -77.11299 3015 ft 172 kts 231°
2026-05-06 02:18 39.00762 -77.12417 3012 ft 170 kts 214°
2026-05-06 02:18 38.99759 -77.13126 3028 ft 160 kts 209°
2026-05-06 02:18 38.98783 -77.13782 2998 ft 157 kts 210°
2026-05-06 02:18 38.97816 -77.14429 3003 ft 156 kts 210°
2026-05-06 02:19 38.96797 -77.14898 2934 ft 162 kts 191°
2026-05-06 02:19 38.95683 -77.14449 2660 ft 180 kts 154°
2026-05-06 02:19 38.94734 -77.13411 2392 ft 177 kts 149°
2026-05-06 02:19 38.93815 -77.12370 2144 ft 178 kts 150°
2026-05-06 02:20 38.91900 -77.10903 1680 ft 142 kts 163°
2026-05-06 02:20 38.91122 -77.10197 1490 ft 147 kts 143°
2026-05-06 02:20 38.90591 -77.09079 1323 ft 149 kts 121°
2026-05-06 02:21 38.90290 -77.07806 1113 ft 144 kts 122°
2026-05-06 02:21 38.89749 -77.06812 948 ft 132 kts 141°
2026-05-06 02:21 38.89123 -77.05956 774 ft 134 kts 138°
2026-05-06 02:21 38.88488 -77.05089 580 ft 131 kts 140°
2026-05-06 02:22 38.87780 -77.04379 395 ft 129 kts 154°
2026-05-06 02:22 38.86943 -77.04026 272 ft 126 kts 172°
2026-05-06 02:22 38.86063 -77.03866 51 ft 126 kts 178°
2026-05-06 02:22 38.85337 -77.03794 26 ft 68 kts 174°
2026-05-06 02:23 38.85054 -77.03764 24 ft 27 kts 175°
2026-05-06 02:23 38.84925 -77.03767 23 ft 17 kts 204°
2026-05-06 02:23 38.84874 -77.03880 24 ft 5 kts 276°
2026-05-06 02:23 38.84874 -77.03882 24 ft 0 kts 276°
2026-05-06 02:24 38.84875 -77.03885 24 ft 1 kts 276°
2026-05-06 02:24 38.84876 -77.03907 24 ft 5 kts 275°
2026-05-06 02:25 38.84907 -77.03952 24 ft 11 kts 345°
2026-05-06 02:25 38.85002 -77.03962 24 ft 16 kts 355°
2026-05-06 02:25 38.85117 -77.03973 24 ft 18 kts 355°
2026-05-06 02:25 38.85245 -77.03987 24 ft 19 kts 355°
2026-05-06 02:26 38.85383 -77.04001 24 ft 19 kts 358°
2026-05-06 02:26 38.85500 -77.04011 24 ft 13 kts 348°
2026-05-06 02:26 38.85540 -77.04078 24 ft 9 kts 266°
2026-05-06 02:26 38.85522 -77.04152 24 ft 7 kts 252°
2026-05-06 02:27 38.85507 -77.04209 24 ft 6 kts 252°
2026-05-06 02:27 38.85517 -77.04253 26 ft 6 kts 325°
2026-05-06 02:27 38.85547 -77.04269 24 ft 2 kts 338°
2026-05-06 02:27 38.85556 -77.04274 24 ft 0 kts 338°